Wind_Speed
11 11 10 11 13 14 14 14 15 15 17 18 19 19 20 20 21 21 22 22 22 21 21 22 21 20 19 21 20 19 18 17
11 12 13 15 17 17 17 18 18 18 20 20 20 22 23 23 23 23 23 24 25 25 24 24 24 25 25 24 23 25 23 21
10 13 15 17 19 19 20 21 23 25 26 27 27 26 28 28 26 27 27 27 27 26 27 27 25 27 27 28 29 28 28 26
15 18 19 19 20 23 25 27 28 30 30 31 31 31 31 31 30 29 31 33 30 28 27 26 27 28 29 30 32 31 31 31
20 23 21 21 22 24 25 26 28 29 30 31 32 33 34 33 31 31 31 28 27 28 28 27 27 28 29 29 31 30 34 38
22 19 18 20 24 27 29 29 30 31 31 32 32 34 35 36 35 32 29 29 31 31 32 31 31 30 30 30 31 32 30 28
18 17 19 24 25 27 27 28 28 29 31 31 31 31 33 35 37 36 36 36 36 36 35 34 32 30 30 29 29 30 30 29
15 18 18 20 22 23 24 25 26 26 27 28 28 28 30 32 35 37 39 39 40 39 36 35 34 33 32 31 29 28 28 25
22 21 21 22 24 27 26 24 23 24 25 25 25 26 27 29 32 35 37 39 39 39 37 36 34 33 34 33 31 28 27 25
27 25 25 25 26 27 29 24 23 23 23 23 23 24 25 26 28 30 33 36 38 39 38 38 37 34 35 35 34 32 29 26
29 28 28 26 26 26 26 23 22 22 22 22 21 22 22 23 25 26 28 30 32 34 36 37 36 36 35 34 35 34 31 28
29 30 29 29 27 28 26 25 24 24 24 23 22 22 22 23 23 24 25 26 27 29 31 33 34 34 33 32 31 34 35 32
30 29 31 30 27 25 25 22 24 24 27 26 24 23 23 24 25 26 27 28 28 28 29 30 33 34 33 32 28 28 31 32
33 32 31 27 25 24 21 19 21 22 23 25 25 25 26 27 28 29 29 28 29 29 29 30 31 33 34 33 30 27 27 30
32 30 27 25 22 20 19 19 20 22 22 25 25 25 26 28 30 30 30 30 30 30 30 30 29 30 32 32 33 32 25 28
29 26 25 21 19 19 20 20 21 22 21 23 25 26 28 29 31 31 31 31 32 30 30 30 29 28 30 30 31 33 31 29
25 23 21 19 20 20 21 20 20 21 22 24 27 29 30 32 31 30 30 29 30 29 28 27 26 26 25 25 28 31 34 34
22 20 19 20 20 19 18 19 20 22 24 27 29 30 31 30 29 29 30 30 28 25 22 20 19 20 21 22 22 24 30 34
17 15 16 17 17 18 19 20 22 23 26 28 28 30 30 29 29 29 28 27 26 22 18 15 16 16 16 17 17 18 21 26
15 16 19 22 25 21 21 26 24 25 28 28 28 29 29 29 29 29 27 23 21 18 16 16 15 15 15 17 17 17 19 20
Wind_Direction
245 248 256 266 270 272 275 278 282 286 292 291 290 288 286 284 285 285 284 282 277 273 269 265 264 264 264 270 273 274 273 275
256 268 276 276 273 272 275 277 276 277 281 282 283 283 282 280 280 275 273 276 277 275 268 269 272 271 266 263 265 266 267 267
280 286 284 281 277 275 279 280 278 279 281 279 278 277 277 278 276 274 273 276 272 271 272 275 271 270 269 268 266 266 267 269
288 296 292 283 278 277 280 279 278 278 279 279 279 278 277 277 277 273 274 279 275 273 273 273 272 272 271 269 268 266 265 261
303 304 298 292 286 283 283 283 281 279 280 281 282 280 278 276 275 275 278 277 276 271 272 280 282 279 276 275 273 271 268 261
308 307 307 311 304 299 296 293 288 285 283 282 280 278 276 276 277 275 272 274 275 271 274 276 277 276 277 276 274 275 278 280
305 304 301 319 318 313 305 297 292 290 289 287 282 277 275 276 276 275 273 274 275 278 280 279 277 277 276 274 275 276 278 284
303 309 310 324 324 329 317 305 297 293 290 288 286 283 278 275 276 278 282 282 284 284 284 282 280 278 277 276 275 275 281 285
313 314 312 321 328 334 330 317 308 301 295 291 289 285 282 279 276 276 279 282 284 286 286 283 280 279 278 278 277 275 277 280
307 307 309 313 320 329 327 319 313 307 303 300 297 294 290 287 284 281 279 280 282 284 285 285 284 279 276 277 279 279 277 272
298 299 297 302 313 320 324 319 315 312 309 307 306 304 301 298 295 292 289 287 285 286 287 286 285 282 278 272 273 275 275 270
288 294 294 297 304 307 311 314 315 318 316 315 312 310 308 306 302 298 296 295 294 292 291 291 289 287 285 280 272 267 269 271
280 279 279 284 294 294 300 304 309 313 308 306 306 305 302 302 304 304 304 303 299 297 294 292 291 291 287 283 279 272 262 262
273 273 273 279 283 285 287 295 300 297 298 297 298 301 306 307 306 303 301 300 299 298 296 295 293 291 289 288 281 269 264 253
269 270 272 273 277 281 286 288 289 295 298 297 302 303 305 305 305 304 303 302 301 300 298 296 293 291 290 286 286 281 267 254
264 265 268 274 279 279 278 282 288 294 301 304 304 306 308 308 308 307 307 306 305 304 303 301 298 293 290 288 281 279 274 261
259 267 272 269 266 266 270 277 287 295 299 303 308 312 313 312 311 311 311 312 309 308 309 308 305 301 295 289 284 279 273 269
257 266 263 261 259 263 271 279 286 293 297 302 306 309 311 311 312 315 317 316 315 316 318 321 323 318 311 303 293 283 279 274
270 268 272 271 273 277 281 287 292 295 298 300 304 309 312 312 312 316 316 316 315 315 317 326 331 330 330 323 314 307 296 286
281 290 305 286 283 274 280 290 291 299 298 294 301 310 310 309 315 315 313 312 310 312 315 320 321 329 333 340 337 336 330 317
Height
3165 3165 3166 3166 3166 3166 3165 3165 3164 3164 3164 3163 3163 3161 3161 3160 3160 3160 3159 3158 3157 3157 3156 3156 3157 3157 3156 3156 3156 3156 3156 3156
3164 3165 3165 3164 3163 3163 3162 3162 3161 3161 3160 3160 3159 3158 3157 3157 3156 3155 3155 3155 3155 3154 3153 3153 3154 3153 3153 3153 3153 3151 3152 3153
3162 3162 3162 3161 3160 3160 3160 3159 3158 3157 3156 3156 3155 3154 3153 3152 3152 3151 3150 3150 3149 3149 3150 3150 3149 3149 3149 3150 3149 3148 3149 3149
3159 3159 3158 3157 3157 3156 3155 3154 3153 3152 3151 3150 3149 3148 3147 3146 3146 3146 3144 3144 3144 3145 3144 3144 3143 3144 3144 3143 3143 3144 3143 3144
3154 3153 3152 3152 3151 3151 3151 3150 3149 3147 3147 3145 3144 3142 3141 3140 3139 3139 3138 3137 3137 3138 3139 3138 3138 3138 3138 3138 3137 3138 3138 3134
3150 3149 3148 3148 3147 3146 3144 3143 3142 3141 3141 3140 3138 3136 3134 3133 3132 3132 3132 3132 3131 3131 3132 3132 3132 3132 3132 3131 3131 3130 3130 3129
3147 3146 3145 3143 3141 3139 3137 3135 3134 3133 3132 3132 3131 3130 3128 3127 3125 3124 3124 3124 3124 3124 3124 3124 3124 3124 3124 3125 3125 3124 3124 3123
3144 3143 3143 3141 3139 3135 3132 3130 3128 3126 3124 3123 3122 3122 3121 3120 3119 3118 3117 3117 3116 3116 3116 3115 3116 3116 3115 3116 3118 3118 3117 3118
3136 3136 3136 3135 3133 3130 3128 3125 3124 3122 3120 3118 3117 3116 3114 3113 3112 3111 3110 3109 3108 3108 3108 3107 3108 3108 3108 3108 3109 3110 3111 3112
3129 3129 3129 3129 3126 3124 3122 3120 3118 3117 3116 3114 3112 3111 3110 3108 3107 3105 3104 3102 3101 3100 3099 3099 3099 3100 3100 3099 3100 3100 3102 3103
3126 3125 3124 3123 3121 3119 3117 3115 3114 3112 3111 3110 3108 3107 3105 3104 3102 3100 3098 3097 3095 3093 3091 3090 3089 3090 3091 3092 3091 3091 3092 3094
3121 3119 3118 3117 3115 3114 3112 3111 3110 3108 3107 3105 3104 3102 3101 3099 3097 3095 3093 3091 3089 3087 3085 3083 3082 3081 3081 3082 3083 3084 3083 3084
3114 3113 3112 3112 3111 3109 3107 3105 3105 3103 3103 3101 3100 3097 3095 3093 3091 3089 3087 3084 3082 3080 3079 3076 3074 3072 3072 3072 3074 3074 3075 3077
3107 3106 3107 3106 3104 3103 3103 3102 3101 3100 3097 3096 3094 3093 3090 3088 3085 3084 3081 3078 3075 3072 3069 3068 3066 3064 3062 3061 3063 3066 3066 3066
3101 3101 3101 3100 3099 3098 3098 3096 3095 3095 3094 3092 3088 3086 3085 3083 3080 3078 3075 3071 3068 3064 3062 3059 3058 3056 3053 3053 3051 3052 3057 3057
3094 3094 3095 3094 3094 3093 3092 3092 3091 3090 3088 3088 3085 3081 3078 3076 3073 3072 3068 3064 3061 3056 3053 3050 3049 3048 3045 3043 3042 3041 3042 3045
3087 3089 3090 3089 3088 3087 3087 3087 3087 3085 3084 3081 3080 3076 3072 3070 3067 3064 3061 3057 3054 3049 3045 3042 3041 3039 3037 3035 3034 3033 3030 3031
3083 3083 3084 3084 3083 3083 3083 3081 3080 3079 3078 3076 3073 3071 3068 3064 3060 3058 3054 3050 3047 3043 3040 3037 3036 3032 3030 3028 3027 3026 3023 3021
3079 3077 3077 3079 3080 3079 3078 3077 3076 3073 3072 3071 3068 3065 3062 3059 3056 3052 3048 3044 3041 3039 3036 3034 3033 3030 3026 3024 3022 3019 3017 3015
3074 3074 3073 3074 3076 3073 3073 3072 3072 3069 3066 3066 3061 3060 3057 3054 3050 3047 3043 3040 3037 3034 3032 3031 3030 3026 3024 3022 3019 3015 3012 3010